Location: Newark
(45.7667°N, 11.5167°E)
Time: 01:56:27
(UTC+00:00)

Envisat - Pass Details

Date: 28 January 2020
Orbit: 764 x 766 km, 98.1° (Epoch: 25 February)

Event Time Altitude Azimuth Distance (km) Brightness Sun altitude
Rises 05:59:08 0° 13° (NNE) 3,243 6.2 -7.6°
Reaches altitude 10° 06:01:27 10° 15° (NNE) 2,312 5.5 -7.2°
Maximum altitude 06:06:34 84° 103° (ESE) 775 3.1 -6.4°
Drops below altitude 10° 06:11:38 10° 193° (SSW) 2,294 5.6 -5.5°
Sets 06:13:55 0° 194° (SSW) 3,216 6.3 -5.2°
